Skip Page Navigation
NASA JPL Caltech
NASA Logo - Jet Propulsion Laboratory + View the NASA Portal
+ Center for Near-Earth Object Studies
JPL Home Earth Solar System Stars & Galaxies Technology
JPL Solar System Dynamics
BODIES ORBITS EPHEMERIDES TOOLS PHYSICAL DATA DISCOVERY FAQ SITE MAP
IMPORTANT: The SSD Announcement email list is now available. Major changes are coming in the near future, including possible hostname and/or URL changes. To be notified of such changes, subscribe to this email list.

Please visit this page for more details.


JPL Small-Body Database Browser
Search: [ help ]  
461183 (2015 VO63)
Classification: Main-belt Asteroid          SPK-ID: 2461183
Ephemeris | Orbit Diagram | Orbital Elements | Mission Design | Physical Parameters | Discovery Circumstances | Close-Approach Data ]

[ show orbit diagram ]
Orbital Elements at Epoch 2459000.5 (2020-May-31.0) TDB
Reference: JPL 17 (heliocentric ecliptic J2000)
 Element Value Uncertainty (1-sigma)   Units 
e .1433962376683623 4.9494e-08  
a 3.191013743508932 5.3565e-08 au
q 2.733434378341714 1.4855e-07 au
i 11.76181245143654 5.778e-06 deg
node 109.9917894454401 2.6565e-05 deg
peri 29.43165001045559 3.4036e-05 deg
M 222.6854371800802 2.3352e-05 deg
tp 2459794.655479275635
(2022-Aug-03.15547928)
0.00014724 TDB
period 2082.051361982377
5.70
5.2424e-05
1.435e-07
d
yr
n .1729063973029149 4.3536e-09 deg/d
Q 3.648593108676149 6.1245e-08 au
  Orbit Determination Parameters
   # obs. used (total)      221  
   data-arc span      5377 days (14.72 yr)  
   first obs. used      2004-12-03  
   last obs. used      2019-08-24  
   planetary ephem.      DE431  
   SB-pert. ephem.      SB431-N16  
   condition code      0  
   norm. resid. RMS      .53754  
   source      ORB  
   producer      Otto Matic  
   solution date      2019-Sep-24 08:00:56  

Additional Information
 Earth MOID = 1.75427 au 
 Jupiter MOID = 1.44886 au 
 T_jup = 3.148 
[ hide covariance matrix ]
Orbital Elements at Epoch 2457499.5 (2016-Apr-21.0) TDB
Reference: JPL 17 (heliocentric ecliptic J2000)
 Element Value Uncertainty (1-sigma)   Units 
e .139922065930371 4.9786e-08  
q 2.747658243147825 1.49e-07 au
tp 2457713.664314514959
(2016-Nov-21.16431451)
0.00012307 TDB
node 110.1524228590881 2.6621e-05 deg
peri 29.94710079096433 3.4369e-05 deg
i 11.74253516829685 5.7683e-06 deg
  Orbit Determination Parameters
   # obs. used (total)      221  
   data-arc span      5377 days (14.72 yr)  
   first obs. used      2004-12-03  
   last obs. used      2019-08-24  
   planetary ephem.      DE431  
   SB-pert. ephem.      SB431-N16  
   condition code      0  
   norm. resid. RMS      .53754  
   source      ORB  
   producer      Otto Matic  
   solution date      2019-Sep-24 08:00:56  

Additional Information
 Jupiter MOID = 1.44886 au 
 T_jup = 3.148 
Orbit Covariance (6×6)
  e q tp node peri i
e 2.478670046652161E-15 -7.095254977974514E-15 4.048732995455834E-13 1.488745177803082E-14 4.68410263535512E-14 -3.720079330282454E-15
q -7.095254977974514E-15 2.220057946709846E-14 6.45404178618732E-13 -4.260127117413146E-14 1.428317137385734E-13 1.470392672027277E-14
tp 4.048732995455834E-13 6.45404178618732E-13 1.514716401354338E-8 1.555846490117008E-11 2.711215607757486E-9 3.017703206327779E-12
node 1.488745177803082E-14 -4.260127117413146E-14 1.555846490117008E-11 7.086860894803858E-10 -6.907659091864868E-10 -1.572147061539442E-11
peri 4.68410263535512E-14 1.428317137385734E-13 2.711215607757486E-9 -6.907659091864868E-10 1.1812332238292E-9 1.57856399283475E-11
i -3.720079330282454E-15 1.470392672027277E-14 3.017703206327779E-12 -1.572147061539442E-11 1.57856399283475E-11 3.327346367958366E-11

Ephemeris | Orbit Diagram | Orbital Elements | Mission Design | Physical Parameters | Discovery Circumstances | Close-Approach Data ]

Physical Parameter Table
Parameter Symbol Value Units Sigma Reference Notes
absolute magnitude H 15.6   n/a MPO450483  
diameter diameter 4.501 km 0.351 urn:nasa:pds:neowise_diameters_albedos::2.0[hildas] (http://adsabs.harvard.edu/abs/2012ApJ...744..197G)  
geometric albedo albedo 0.046   0.012 urn:nasa:pds:neowise_diameters_albedos::2.0[hildas] (http://adsabs.harvard.edu/abs/2012ApJ...744..197G)  

461183 (2015 VO63)          Discovered 2004-Dec-03 by Spacewatch at Kitt Peak
Reference: Last Updated: 2016-02-25

[ show close-approach data ]
Alternate Designations
 2015 VO63 = 2010 BR53 = 2011 BR54 
Ephemeris | Orbit Diagram | Orbital Elements | Mission Design | Physical Parameters | Discovery Circumstances | Close-Approach Data ]
ABOUT SSD CREDITS/AWARDS PRIVACY/COPYRIGHT GLOSSARY LINKS
FirstGov 2020-Mar-29 16:03 UT
(server date/time)  
NASA Home Page
Site Manager:   Ryan S. Park
Webmaster  Alan B. Chamberlin